| time (UTC) | temp F | wind direction | speed MPH | gust MPH | rain 1hr in | rain 24hr in | rain mn in | humidity % | barometer mb |
| 20260509021504 | 53 | 14 | 4.0 | 7.0 | 0.00 | 0.41 | 0.00 | 84 | 1014.9 |
| 20260509021004 | 53 | 21 | 6.0 | 7.0 | 0.00 | 0.41 | 0.00 | 85 | 1014.9 |
| 20260509020525 | 53 | 18 | 7.0 | 8.0 | 0.00 | 0.41 | 0.00 | 86 | 1014.9 |
| 20260509020004 | 53 | 17 | 6.0 | 8.0 | 0.00 | 0.41 | 0.00 | 86 | 1015.2 |
| 20260509015504 | 53 | 14 | 6.0 | 7.0 | 0.00 | 0.41 | 0.00 | 86 | 1015.0 |
| 20260509015003 | 53 | 11 | 6.0 | 7.0 | 0.00 | 0.41 | 0.00 | 86 | 1015.3 |
| 20260509014524 | 53 | 14 | 5.0 | 6.0 | 0.00 | 0.41 | 0.00 | 86 | 1015.1 |
| 20260509014004 | 53 | 9 | 4.0 | 6.0 | 0.00 | 0.41 | 0.00 | 86 | 1015.2 |
| 20260509013504 | 53 | 5 | 4.0 | 5.0 | 0.00 | 0.41 | 0.00 | 85 | 1015.3 |
| 20260509013004 | 53 | 7 | 4.0 | 5.0 | 0.00 | 0.41 | 0.00 | 85 | 1015.3 |
| 20260509012504 | 52 | 9 | 3.0 | 4.0 | 0.00 | 0.41 | 0.00 | 85 | 1015.5 |
| 20260509012004 | 52 | 12 | 3.0 | 4.0 | 0.00 | 0.41 | 0.00 | 84 | 1015.2 |
| 20260509011524 | 52 | 13 | 3.0 | 4.0 | 0.00 | 0.41 | 0.00 | 84 | 1015.5 |
| 20260509011025 | 53 | 4 | 4.0 | 4.0 | 0.00 | 0.41 | 0.00 | 83 | 1015.5 |
| 20260509010504 | 53 | 3 | 4.0 | 4.0 | 0.00 | 0.41 | 0.00 | 83 | 1015.2 |
| 20260509010004 | 53 | 10 | 5.0 | 8.0 | 0.00 | 0.41 | 0.00 | 83 | 1015.5 |
| 20260509005524 | 53 | 15 | 6.0 | 8.0 | 0.00 | 0.41 | 0.00 | 82 | 1015.3 |
| 20260509005004 | 53 | 14 | 6.0 | 7.0 | 0.00 | 0.41 | 0.00 | 82 | 1015.2 |
| 20260509004503 | 54 | 11 | 5.0 | 6.0 | 0.00 | 0.41 | 0.00 | 82 | 1015.3 |
| 20260509004003 | 54 | 8 | 5.0 | 6.0 | 0.00 | 0.41 | 0.00 | 82 | 1015.3 |
| 20260509003503 | 54 | 9 | 5.0 | 5.0 | 0.00 | 0.41 | 0.00 | 79 | 1015.2 |
| 20260509003025 | 54 | 13 | 4.0 | 5.0 | 0.00 | 0.41 | 0.00 | 80 | 1015.5 |
| 20260509002504 | 54 | 12 | 5.0 | 6.0 | 0.00 | 0.41 | 0.00 | 80 | 1015.3 |
| 20260509002025 | 54 | 14 | 5.0 | 6.0 | 0.00 | 0.41 | 0.00 | 79 | 1015.3 |
| 20260509001504 | 54 | 10 | 3.0 | 4.0 | 0.00 | 0.41 | 0.00 | 79 | 1015.2 |
| 20260509001004 | 55 | 338 | 2.0 | 3.0 | 0.00 | 0.41 | 0.00 | 79 | 1015.2 |
| 20260509000504 | 55 | 352 | 3.0 | 4.0 | 0.00 | 0.41 | 0.00 | 79 | 1015.1 |
| 20260509000004 | 55 | 22 | 4.0 | 4.0 | 0.00 | 0.41 | 0.00 | 79 | 1015.3 |
| 20260508235524 | 55 | 18 | 4.0 | 5.0 | 0.00 | 0.41 | 0.00 | 79 | 1015.2 |
| 20260508235025 | 55 | 12 | 4.0 | 5.0 | 0.00 | 0.41 | 0.00 | 79 | 1015.2 |
| 20260508234503 | 55 | 11 | 5.0 | 5.0 | 0.00 | 0.41 | 0.00 | 80 | 1015.0 |
| 20260508234004 | 55 | 17 | 5.0 | 6.0 | 0.00 | 0.41 | 0.00 | 80 | 1015.1 |
| 20260508233504 | 55 | 20 | 5.0 | 6.0 | 0.00 | 0.41 | 0.00 | 80 | 1015.2 |
| 20260508233003 | 55 | 14 | 5.0 | 6.0 | 0.00 | 0.41 | 0.00 | 79 | 1015.1 |
| 20260508232504 | 55 | 11 | 5.0 | 5.0 | 0.00 | 0.41 | 0.00 | 79 | 1015.0 |
| 20260508232003 | 55 | 12 | 5.0 | 8.0 | 0.00 | 0.41 | 0.00 | 79 | 1015.2 |
| 20260508231003 | 55 | 15 | 6.0 | 8.0 | 0.00 | 0.41 | 0.00 | 80 | 1014.9 |
| 20260508230503 | 55 | 14 | 5.0 | 6.0 | 0.00 | 0.41 | 0.00 | 80 | 1015.0 |
| 20260508230003 | 55 | 12 | 5.0 | 6.0 | 0.00 | 0.41 | 0.00 | 80 | 1014.9 |
| 20260508225503 | 55 | 12 | 5.0 | 6.0 | 0.00 | 0.41 | 0.00 | 80 | 1015.1 |
| 20260508225003 | 55 | 14 | 4.0 | 6.0 | 0.00 | 0.41 | 0.00 | 80 | 1015.0 |
| 20260508224503 | 55 | 7 | 2.0 | 5.0 | 0.00 | 0.41 | 0.00 | 80 | 1015.2 |
| 20260508224003 | 55 | 6 | 1.0 | 2.0 | 0.00 | 0.41 | 0.00 | 80 | 1015.3 |
| 20260508223503 | 55 | 11 | 1.0 | 2.0 | 0.00 | 0.41 | 0.00 | 79 | 1015.2 |
| 20260508223003 | 55 | 17 | 0.0 | 2.0 | 0.00 | 0.41 | 0.00 | 79 | 1015.2 |
| 20260508222503 | 55 | 18 | 0.0 | 2.0 | 0.00 | 0.41 | 0.00 | 79 | 1015.2 |
| 20260508222003 | 55 | 21 | 1.0 | 3.0 | 0.00 | 0.41 | 0.00 | 80 | 1015.2 |
| 20260508221503 | 56 | 19 | 2.0 | 3.0 | 0.00 | 0.41 | 0.00 | 80 | 1015.2 |
| 20260508221003 | 56 | 19 | 2.0 | 3.0 | 0.00 | 0.41 | 0.00 | 80 | 1015.3 |
| 20260508220503 | 56 | 22 | 2.0 | 3.0 | 0.00 | 0.41 | 0.00 | 81 | 1015.1 |
| 20260508220003 | 56 | 21 | 1.0 | 3.0 | 0.00 | 0.41 | 0.00 | 81 | 1015.2 |
| 20260508215503 | 56 | 19 | 1.0 | 2.0 | 0.00 | 0.41 | 0.41 | 80 | 1015.0 |
| 20260508215003 | 55 | 19 | 0.0 | 2.0 | 0.00 | 0.41 | 0.41 | 80 | 1015.1 |
| 20260508214503 | 55 | 360 | 0.0 | 1.0 | 0.00 | 0.41 | 0.41 | 80 | 1015.1 |
| 20260508214024 | 55 | 22 | 0.0 | 1.0 | 0.00 | 0.41 | 0.41 | 80 | 1015.0 |
| 20260508213503 | 55 | 19 | 0.0 | 1.0 | 0.00 | 0.41 | 0.41 | 80 | 1015.1 |
| 20260508213003 | 55 | 17 | 0.0 | 1.0 | 0.00 | 0.41 | 0.41 | 80 | 1015.1 |
| 20260508212503 | 56 | 351 | 1.0 | 2.0 | 0.00 | 0.41 | 0.41 | 80 | 1015.2 |
| 20260508212003 | 56 | 3 | 2.0 | 3.0 | 0.00 | 0.41 | 0.41 | 79 | 1015.0 |
| 20260508211503 | 56 | 7 | 3.0 | 4.0 | 0.00 | 0.41 | 0.41 | 79 | 1015.0 |
| 20260508211003 | 57 | 359 | 3.0 | 4.0 | 0.00 | 0.41 | 0.41 | 79 | 1015.1 |
| 20260508210524 | 57 | 1 | 3.0 | 4.0 | 0.00 | 0.41 | 0.41 | 79 | 1015.0 |
| 20260508210024 | 57 | 8 | 2.0 | 4.0 | 0.00 | 0.41 | 0.41 | 80 | 1015.0 |
| 20260508205503 | 57 | 0 | 0.0 | 0.0 | 0.00 | 0.41 | 0.41 | 79 | 1015.1 |
| 20260508205024 | 57 | 0 | 0.0 | 0.0 | 0.00 | 0.41 | 0.41 | 78 | 1014.9 |
| 20260508204503 | 57 | 0 | 0.0 | 0.0 | 0.00 | 0.41 | 0.41 | 78 | 1014.9 |
| 20260508204003 | 57 | 0 | 0.0 | 0.0 | 0.00 | 0.41 | 0.41 | 78 | 1014.9 |
| 20260508203503 | 57 | 0 | 0.0 | 0.0 | 0.00 | 0.41 | 0.41 | 78 | 1014.9 |
| 20260508203003 | 57 | 0 | 0.0 | 0.0 | 0.00 | 0.41 | 0.41 | 79 | 1014.9 |
| 20260508202503 | 57 | 0 | 0.0 | 0.0 | 0.00 | 0.41 | 0.41 | 78 | 1014.9 |
| 20260508202003 | 57 | 0 | 0.0 | 0.0 | 0.00 | 0.41 | 0.41 | 78 | 1015.0 |
| 20260508201503 | 57 | 0 | 0.0 | 0.0 | 0.00 | 0.41 | 0.41 | 78 | 1014.9 |
| 20260508201003 | 57 | 0 | 0.0 | 0.0 | 0.00 | 0.41 | 0.41 | 78 | 1014.9 |
| 20260508200503 | 57 | 0 | 0.0 | 0.0 | 0.00 | 0.41 | 0.41 | 78 | 1014.9 |
| 20260508200003 | 57 | 0 | 0.0 | 0.0 | 0.00 | 0.41 | 0.41 | 78 | 1014.8 |
| 20260508195503 | 57 | 0 | 0.0 | 0.0 | 0.00 | 0.41 | 0.41 | 77 | 1014.8 |
| 20260508195003 | 57 | 0 | 0.0 | 0.0 | 0.00 | 0.41 | 0.41 | 77 | 1014.7 |
| 20260508194524 | 57 | 0 | 0.0 | 0.0 | 0.00 | 0.41 | 0.41 | 77 | 1014.8 |
| 20260508194003 | 57 | 0 | 0.0 | 0.0 | 0.00 | 0.41 | 0.41 | 76 | 1014.6 |
| 20260508193503 | 57 | 0 | 0.0 | 0.0 | 0.00 | 0.41 | 0.41 | 76 | 1014.6 |
| 20260508193003 | 58 | 0 | 0.0 | 0.0 | 0.00 | 0.41 | 0.41 | 76 | 1014.4 |
| 20260508192524 | 58 | 0 | 0.0 | 0.0 | 0.00 | 0.41 | 0.41 | 77 | 1014.5 |
| 20260508192024 | 58 | 0 | 0.0 | 0.0 | 0.00 | 0.41 | 0.41 | 77 | 1014.3 |
| 20260508191503 | 58 | 0 | 0.0 | 0.0 | 0.00 | 0.41 | 0.41 | 76 | 1014.2 |
| 20260508191024 | 58 | 0 | 0.0 | 0.0 | 0.00 | 0.41 | 0.41 | 77 | 1014.2 |
| 20260508190503 | 59 | 0 | 0.0 | 0.0 | 0.00 | 0.41 | 0.41 | 78 | 1014.2 |
| 20260508190024 | 59 | 0 | 0.0 | 0.0 | 0.00 | 0.41 | 0.41 | 78 | 1014.0 |
| 20260508185503 | 59 | 0 | 0.0 | 0.0 | 0.00 | 0.41 | 0.41 | 78 | 1013.9 |
| 20260508185003 | 59 | 0 | 0.0 | 0.0 | 0.00 | 0.41 | 0.41 | 78 | 1013.9 |
| 20260508184504 | 59 | 0 | 0.0 | 0.0 | 0.00 | 0.41 | 0.41 | 79 | 1013.9 |
| 20260508184024 | 60 | 0 | 0.0 | 0.0 | 0.00 | 0.41 | 0.41 | 79 | 1013.9 |
| 20260508183503 | 60 | 0 | 0.0 | 0.0 | 0.00 | 0.41 | 0.41 | 78 | 1013.7 |
| 20260508183024 | 60 | 0 | 0.0 | 0.0 | 0.00 | 0.41 | 0.41 | 77 | 1013.7 |
| 20260508182503 | 61 | 0 | 0.0 | 0.0 | 0.00 | 0.41 | 0.41 | 76 | 1013.7 |
| 20260508182003 | 61 | 0 | 0.0 | 0.0 | 0.00 | 0.41 | 0.41 | 76 | 1013.7 |
| 20260508181503 | 62 | 0 | 0.0 | 0.0 | 0.00 | 0.41 | 0.41 | 76 | 1013.6 |
| 20260508181003 | 62 | 0 | 0.0 | 0.0 | 0.00 | 0.41 | 0.41 | 76 | 1013.8 |
| 20260508180503 | 62 | 0 | 0.0 | 0.0 | 0.00 | 0.41 | 0.41 | 76 | 1013.7 |
| 20260508180003 | 62 | 360 | 0.0 | 1.0 | 0.00 | 0.41 | 0.41 | 76 | 1013.9 |
| 20260508175503 | 62 | 360 | 0.0 | 1.0 | 0.00 | 0.41 | 0.41 | 77 | 1013.8 |
| 20260508175003 | 61 | 360 | 0.0 | 1.0 | 0.00 | 0.41 | 0.41 | 77 | 1013.6 |
| 20260508174503 | 61 | 0 | 0.0 | 0.0 | 0.00 | 0.41 | 0.41 | 77 | 1013.7 |
| 20260508174003 | 62 | 0 | 0.0 | 0.0 | 0.00 | 0.41 | 0.41 | 77 | 1013.8 |
| 20260508173503 | 62 | 0 | 0.0 | 0.0 | 0.00 | 0.41 | 0.41 | 76 | 1013.6 |
| 20260508173003 | 61 | 0 | 0.0 | 0.0 | 0.00 | 0.41 | 0.41 | 77 | 1013.7 |
| 20260508172503 | 61 | 0 | 0.0 | 0.0 | 0.00 | 0.41 | 0.41 | 77 | 1013.8 |
| 20260508172003 | 61 | 0 | 0.0 | 0.0 | 0.00 | 0.41 | 0.41 | 77 | 1013.7 |
| 20260508171503 | 61 | 0 | 0.0 | 0.0 | 0.00 | 0.41 | 0.41 | 77 | 1013.6 |
| 20260508171003 | 61 | 0 | 0.0 | 0.0 | 0.00 | 0.41 | 0.41 | 78 | 1013.6 |
| 20260508170503 | 61 | 0 | 0.0 | 0.0 | 0.00 | 0.41 | 0.41 | 78 | 1013.7 |
| 20260508170003 | 61 | 0 | 0.0 | 0.0 | 0.00 | 0.41 | 0.41 | 78 | 1013.6 |
| 20260508165524 | 62 | 0 | 0.0 | 0.0 | 0.00 | 0.41 | 0.41 | 78 | 1013.7 |
| 20260508165024 | 62 | 0 | 0.0 | 0.0 | 0.00 | 0.41 | 0.41 | 77 | 1013.5 |
| 20260508164524 | 62 | 0 | 0.0 | 0.0 | 0.00 | 0.41 | 0.41 | 77 | 1013.6 |
| 20260508164024 | 62 | 0 | 0.0 | 0.0 | 0.00 | 0.41 | 0.41 | 77 | 1013.8 |
| 20260508163503 | 62 | 0 | 0.0 | 0.0 | 0.00 | 0.41 | 0.41 | 77 | 1013.6 |
| 20260508163003 | 62 | 0 | 0.0 | 0.0 | 0.00 | 0.41 | 0.41 | 77 | 1013.6 |
| 20260508162503 | 62 | 0 | 0.0 | 0.0 | 0.00 | 0.41 | 0.41 | 77 | 1013.5 |
| 20260508162024 | 61 | 0 | 0.0 | 0.0 | 0.00 | 0.41 | 0.41 | 78 | 1013.4 |
| 20260508161503 | 61 | 67 | 0.0 | 1.0 | 0.00 | 0.41 | 0.41 | 79 | 1013.6 |
| 20260508161024 | 60 | 67 | 0.0 | 1.0 | 0.01 | 0.41 | 0.41 | 80 | 1013.6 |
| 20260508160503 | 60 | 0 | 0.0 | 0.0 | 0.01 | 0.41 | 0.41 | 80 | 1013.6 |
| 20260508160024 | 60 | 9 | 0.0 | 2.0 | 0.02 | 0.41 | 0.41 | 80 | 1013.6 |
| 20260508155524 | 60 | 11 | 1.0 | 2.0 | 0.04 | 0.41 | 0.41 | 80 | 1013.5 |
| 20260508155024 | 59 | 13 | 0.0 | 2.0 | 0.05 | 0.41 | 0.41 | 80 | 1013.5 |
| 20260508154524 | 59 | 341 | 1.0 | 2.0 | 0.06 | 0.41 | 0.41 | 79 | 1013.8 |
| 20260508154003 | 58 | 359 | 2.0 | 4.0 | 0.07 | 0.41 | 0.41 | 79 | 1013.6 |
| 20260508153503 | 58 | 1 | 3.0 | 4.0 | 0.07 | 0.41 | 0.41 | 78 | 1013.8 |
| 20260508153003 | 58 | 7 | 3.0 | 4.0 | 0.08 | 0.41 | 0.41 | 78 | 1013.9 |
| 20260508152503 | 58 | 25 | 4.0 | 5.0 | 0.09 | 0.41 | 0.41 | 78 | 1013.9 |
| 20260508152024 | 57 | 33 | 4.0 | 5.0 | 0.09 | 0.41 | 0.41 | 77 | 1014.1 |
| 20260508151503 | 57 | 45 | 4.0 | 6.0 | 0.11 | 0.41 | 0.41 | 77 | 1014.1 |
| 20260508151003 | 57 | 32 | 3.0 | 6.0 | 0.12 | 0.40 | 0.40 | 76 | 1014.2 |
| 20260508150503 | 56 | 19 | 5.0 | 8.0 | 0.13 | 0.40 | 0.40 | 76 | 1014.0 |
| 20260508150003 | 56 | 10 | 5.0 | 8.0 | 0.18 | 0.39 | 0.39 | 76 | 1013.9 |
| 20260508145503 | 56 | 355 | 4.0 | 6.0 | 0.31 | 0.38 | 0.38 | 76 | 1014.0 |
| 20260508145024 | 56 | 355 | 3.0 | 4.0 | 0.32 | 0.37 | 0.37 | 76 | 1014.0 |
| 20260508144503 | 56 | 359 | 2.0 | 4.0 | 0.32 | 0.35 | 0.35 | 76 | 1014.0 |
| 20260508144003 | 56 | 330 | 1.0 | 4.0 | 0.31 | 0.34 | 0.34 | 76 | 1013.9 |
| 20260508143503 | 56 | 331 | 2.0 | 4.0 | 0.32 | 0.34 | 0.34 | 75 | 1014.0 |
| 20260508143003 | 56 | 344 | 1.0 | 4.0 | 0.31 | 0.33 | 0.33 | 75 | 1014.0 |
| 20260508142524 | 56 | 341 | 1.0 | 4.0 | 0.32 | 0.32 | 0.32 | 74 | 1014.1 |
| 20260508142003 | 57 | 340 | 2.0 | 4.0 | 0.32 | 0.32 | 0.32 | 74 | 1014.2 |
| 20260508141503 | 57 | 330 | 4.0 | 5.0 | 0.31 | 0.31 | 0.31 | 73 | 1014.1 |
| 20260508141003 | 58 | 320 | 4.0 | 7.0 | 0.28 | 0.28 | 0.28 | 72 | 1014.4 |
| 20260508140503 | 58 | 321 | 7.0 | 11.0 | 0.27 | 0.27 | 0.27 | 71 | 1014.3 |
| 20260508140003 | 59 | 323 | 5.0 | 11.0 | 0.21 | 0.21 | 0.21 | 70 | 1014.4 |
| 20260508135503 | 61 | 328 | 2.0 | 5.0 | 0.07 | 0.07 | 0.07 | 70 | 1014.3 |
| 20260508135003 | 61 | 344 | 3.0 | 9.0 | 0.05 | 0.05 | 0.05 | 69 | 1014.2 |
| 20260508134503 | 62 | 346 | 2.0 | 9.0 | 0.04 | 0.04 | 0.04 | 68 | 1013.9 |
| 20260508134003 | 64 | 325 | 1.0 | 3.0 | 0.04 | 0.04 | 0.04 | 62 | 1013.9 |
| 20260508133503 | 64 | 317 | 1.0 | 3.0 | 0.02 | 0.02 | 0.02 | 61 | 1014.0 |
| 20260508133003 | 65 | 329 | 1.0 | 2.0 | 0.02 | 0.02 | 0.02 | 60 | 1013.9 |
| 20260508132503 | 65 | 298 | 2.0 | 7.0 | 0.00 | 0.00 | 0.00 | 59 | 1014.0 |
| 20260508132003 | 66 | 274 | 4.0 | 7.0 | 0.00 | 0.00 | 0.00 | 57 | 1014.2 |
| 20260508131503 | 66 | 263 | 2.0 | 7.0 | 0.00 | 0.00 | 0.00 | 56 | 1014.1 |
| 20260508131003 | 67 | 117 | 1.0 | 5.0 | 0.00 | 0.00 | 0.00 | 56 | 1014.0 |
| 20260508130503 | 67 | 233 | 4.0 | 7.0 | 0.00 | 0.00 | 0.00 | 55 | 1014.1 |
| 20260508130003 | 67 | 252 | 6.0 | 8.0 | 0.00 | 0.00 | 0.00 | 55 | 1014.2 |
| 20260508125524 | 67 | 253 | 5.0 | 8.0 | 0.00 | 0.00 | 0.00 | 54 | 1014.2 |
| 20260508125003 | 67 | 225 | 2.0 | 8.0 | 0.00 | 0.00 | 0.00 | 54 | 1014.2 |
| 20260508124524 | 67 | 193 | 3.0 | 5.0 | 0.00 | 0.00 | 0.00 | 54 | 1014.0 |
| 20260508124024 | 67 | 160 | 3.0 | 5.0 | 0.00 | 0.00 | 0.00 | 54 | 1014.0 |
| 20260508123503 | 68 | 8 | 3.0 | 5.0 | 0.00 | 0.00 | 0.00 | 54 | 1014.2 |
| 20260508123003 | 68 | 244 | 4.0 | 8.0 | 0.00 | 0.00 | 0.00 | 55 | 1014.1 |
| 20260508122503 | 68 | 211 | 5.0 | 8.0 | 0.00 | 0.00 | 0.00 | 55 | 1014.0 |
| 20260508122003 | 68 | 192 | 3.0 | 7.0 | 0.00 | 0.00 | 0.00 | 56 | 1014.0 |
| 20260508121503 | 67 | 217 | 3.0 | 5.0 | 0.00 | 0.00 | 0.00 | 57 | 1014.2 |
| 20260508121003 | 67 | 229 | 4.0 | 6.0 | 0.00 | 0.00 | 0.00 | 56 | 1014.1 |
| 20260508120503 | 67 | 184 | 5.0 | 7.0 | 0.00 | 0.00 | 0.00 | 56 | 1014.1 |
| 20260508120003 | 67 | 186 | 6.0 | 7.0 | 0.00 | 0.00 | 0.00 | 56 | 1014.2 |
| 20260508115508 | 67 | 226 | 7.0 | 11.0 | 0.00 | 0.00 | 0.00 | 56 | 1014.2 |
| 20260508115003 | 67 | 246 | 7.0 | 11.0 | 0.00 | 0.00 | 0.00 | 56 | 1014.4 |
| 20260508114503 | 67 | 195 | 6.0 | 11.0 | 0.00 | 0.00 | 0.00 | 56 | 1014.2 |
| 20260508114024 | 66 | 138 | 5.0 | 8.0 | 0.00 | 0.00 | 0.00 | 56 | 1014.4 |
| 20260508113503 | 66 | 130 | 6.0 | 8.0 | 0.00 | 0.00 | 0.00 | 57 | 1014.4 |
| 20260508113003 | 66 | 170 | 5.0 | 8.0 | 0.00 | 0.00 | 0.00 | 56 | 1014.3 |
| 20260508112503 | 67 | 219 | 6.0 | 10.0 | 0.00 | 0.00 | 0.00 | 57 | 1014.5 |
| 20260508112003 | 67 | 205 | 7.0 | 10.0 | 0.00 | 0.00 | 0.00 | 57 | 1014.6 |
| 20260508111503 | 67 | 218 | 5.0 | 8.0 | 0.00 | 0.00 | 0.00 | 58 | 1014.4 |
| 20260508111003 | 67 | 286 | 3.0 | 6.0 | 0.00 | 0.00 | 0.00 | 58 | 1014.6 |
| 20260508110524 | 67 | 270 | 3.0 | 5.0 | 0.00 | 0.00 | 0.00 | 58 | 1014.6 |
| 20260508110003 | 67 | 181 | 4.0 | 5.0 | 0.00 | 0.00 | 0.00 | 58 | 1014.5 |
| 20260508105503 | 67 | 197 | 4.0 | 8.0 | 0.00 | 0.00 | 0.00 | 58 | 1014.6 |
| 20260508105003 | 67 | 217 | 5.0 | 8.0 | 0.00 | 0.00 | 0.00 | 59 | 1014.7 |
| 20260508104503 | 67 | 208 | 4.0 | 6.0 | 0.00 | 0.00 | 0.00 | 59 | 1014.7 |
| 20260508104024 | 67 | 170 | 5.0 | 9.0 | 0.00 | 0.00 | 0.00 | 60 | 1014.7 |
| 20260508103503 | 66 | 204 | 6.0 | 9.0 | 0.00 | 0.00 | 0.00 | 59 | 1014.7 |
| 20260508103003 | 66 | 211 | 5.0 | 9.0 | 0.00 | 0.00 | 0.00 | 60 | 1014.7 |
| 20260508102524 | 66 | 202 | 6.0 | 9.0 | 0.00 | 0.00 | 0.00 | 60 | 1014.9 |
| 20260508102003 | 66 | 215 | 4.0 | 9.0 | 0.00 | 0.00 | 0.00 | 61 | 1014.8 |
| 20260508101503 | 65 | 59 | 2.0 | 4.0 | 0.00 | 0.00 | 0.00 | 61 | 1014.9 |
| 20260508101003 | 65 | 139 | 4.0 | 8.0 | 0.00 | 0.00 | 0.00 | 60 | 1014.8 |
| 20260508100503 | 65 | 181 | 6.0 | 8.0 | 0.00 | 0.00 | 0.00 | 60 | 1014.8 |
| 20260508100003 | 65 | 203 | 5.0 | 8.0 | 0.00 | 0.00 | 0.00 | 61 | 1014.9 |
| 20260508095503 | 65 | 243 | 4.0 | 6.0 | 0.00 | 0.00 | 0.00 | 61 | 1014.9 |
| 20260508095003 | 65 | 263 | 5.0 | 8.0 | 0.00 | 0.00 | 0.00 | 61 | 1014.8 |
| 20260508094503 | 65 | 221 | 6.0 | 8.0 | 0.00 | 0.00 | 0.00 | 61 | 1014.8 |
| 20260508094003 | 65 | 208 | 6.0 | 8.0 | 0.00 | 0.00 | 0.00 | 61 | 1014.9 |
| 20260508093503 | 65 | 252 | 5.0 | 8.0 | 0.00 | 0.00 | 0.00 | 61 | 1014.8 |
| 20260508093003 | 64 | 261 | 5.0 | 6.0 | 0.00 | 0.00 | 0.00 | 62 | 1014.8 |
| 20260508092524 | 64 | 226 | 6.0 | 8.0 | 0.00 | 0.00 | 0.00 | 61 | 1014.9 |
| 20260508092003 | 64 | 197 | 7.0 | 8.0 | 0.00 | 0.00 | 0.00 | 61 | 1014.8 |
| 20260508091503 | 64 | 173 | 7.0 | 8.0 | 0.00 | 0.00 | 0.00 | 62 | 1014.8 |
| 20260508091024 | 64 | 116 | 7.0 | 8.0 | 0.00 | 0.00 | 0.00 | 62 | 1014.8 |
| 20260508090503 | 63 | 96 | 6.0 | 7.0 | 0.00 | 0.00 | 0.00 | 65 | 1014.9 |
| 20260508090024 | 63 | 127 | 6.0 | 8.0 | 0.00 | 0.00 | 0.00 | 65 | 1014.7 |
| 20260508085503 | 63 | 133 | 7.0 | 8.0 | 0.00 | 0.00 | 0.00 | 65 | 1014.9 |
| 20260508085003 | 62 | 152 | 6.0 | 8.0 | 0.00 | 0.00 | 0.00 | 65 | 1014.9 |
| 20260508084503 | 62 | 177 | 6.0 | 8.0 | 0.00 | 0.00 | 0.00 | 65 | 1014.8 |
| 20260508084003 | 62 | 195 | 5.0 | 8.0 | 0.00 | 0.00 | 0.00 | 66 | 1014.8 |
| 20260508083503 | 62 | 179 | 5.0 | 8.0 | 0.00 | 0.00 | 0.00 | 66 | 1014.7 |
| 20260508083003 | 62 | 184 | 7.0 | 9.0 | 0.00 | 0.00 | 0.00 | 66 | 1014.8 |
| 20260508082503 | 62 | 217 | 7.0 | 9.0 | 0.00 | 0.00 | 0.00 | 66 | 1014.8 |
| 20260508082003 | 62 | 219 | 6.0 | 8.0 | 0.00 | 0.00 | 0.00 | 67 | 1014.6 |
| 20260508081503 | 62 | 206 | 6.0 | 8.0 | 0.00 | 0.00 | 0.00 | 67 | 1014.8 |
| 20260508081003 | 63 | 219 | 4.0 | 8.0 | 0.00 | 0.00 | 0.00 | 68 | 1014.7 |
| 20260508080503 | 63 | 281 | 2.0 | 3.0 | 0.00 | 0.00 | 0.00 | 69 | 1014.6 |
| 20260508080024 | 63 | 317 | 2.0 | 4.0 | 0.00 | 0.00 | 0.00 | 69 | 1014.8 |
| 20260508075503 | 62 | 219 | 2.0 | 4.0 | 0.00 | 0.00 | 0.00 | 69 | 1014.6 |
| 20260508075024 | 62 | 252 | 3.0 | 4.0 | 0.00 | 0.00 | 0.00 | 69 | 1014.6 |
| 20260508074524 | 62 | 289 | 2.0 | 4.0 | 0.00 | 0.00 | 0.00 | 70 | 1014.6 |
| 20260508074003 | 63 | 330 | 1.0 | 3.0 | 0.00 | 0.00 | 0.00 | 70 | 1014.5 |
| 20260508073503 | 62 | 350 | 2.0 | 3.0 | 0.00 | 0.00 | 0.00 | 70 | 1014.4 |
| 20260508073003 | 62 | 1 | 2.0 | 3.0 | 0.00 | 0.00 | 0.00 | 71 | 1014.5 |
| 20260508072503 | 62 | 352 | 2.0 | 2.0 | 0.00 | 0.00 | 0.00 | 72 | 1014.4 |
| 20260508072003 | 61 | 333 | 2.0 | 3.0 | 0.00 | 0.00 | 0.00 | 72 | 1014.4 |
| 20260508071503 | 60 | 340 | 2.0 | 3.0 | 0.00 | 0.00 | 0.00 | 72 | 1014.4 |
| 20260508071024 | 60 | 356 | 3.0 | 3.0 | 0.00 | 0.00 | 0.00 | 72 | 1014.4 |
| 20260508070503 | 60 | 358 | 2.0 | 3.0 | 0.00 | 0.00 | 0.00 | 74 | 1014.4 |
| 20260508070003 | 59 | 330 | 1.0 | 3.0 | 0.00 | 0.00 | 0.00 | 74 | 1014.3 |
| 20260508065503 | 59 | 326 | 2.0 | 4.0 | 0.00 | 0.00 | 0.00 | 74 | 1014.2 |
| 20260508065003 | 58 | 322 | 1.0 | 4.0 | 0.00 | 0.00 | 0.00 | 75 | 1014.1 |
| 20260508064503 | 58 | 336 | 1.0 | 4.0 | 0.00 | 0.00 | 0.00 | 75 | 1014.2 |
| 20260508064003 | 57 | 341 | 0.0 | 2.0 | 0.00 | 0.00 | 0.00 | 76 | 1014.1 |
| 20260508063524 | 57 | 360 | 0.0 | 2.0 | 0.00 | 0.00 | 0.00 | 76 | 1014.1 |
| 20260508063003 | 56 | 3 | 1.0 | 2.0 | 0.00 | 0.00 | 0.00 | 75 | 1014.1 |
| 20260508062503 | 56 | 7 | 2.0 | 4.0 | 0.00 | 0.00 | 0.00 | 75 | 1014.0 |
| 20260508062003 | 56 | 15 | 3.0 | 4.0 | 0.00 | 0.00 | 0.00 | 76 | 1014.0 |
| 20260508061503 | 56 | 15 | 3.0 | 4.0 | 0.00 | 0.00 | 0.00 | 76 | 1013.9 |
| 20260508061003 | 56 | 6 | 3.0 | 4.0 | 0.00 | 0.00 | 0.00 | 76 | 1013.9 |
| 20260508060503 | 56 | 6 | 3.0 | 4.0 | 0.00 | 0.00 | 0.00 | 77 | 1013.9 |
| 20260508060003 | 56 | 4 | 3.0 | 4.0 | 0.00 | 0.00 | 0.00 | 77 | 1013.9 |
| 20260508055503 | 55 | 360 | 3.0 | 4.0 | 0.00 | 0.00 | 0.00 | 77 | 1013.8 |
| 20260508055024 | 55 | 5 | 3.0 | 4.0 | 0.00 | 0.00 | 0.00 | 77 | 1013.7 |
| 20260508054503 | 55 | 17 | 3.0 | 5.0 | 0.00 | 0.00 | 0.00 | 77 | 1013.8 |
| 20260508054003 | 55 | 11 | 3.0 | 5.0 | 0.00 | 0.00 | 0.00 | 78 | 1013.7 |
| 20260508053503 | 55 | 9 | 4.0 | 6.0 | 0.00 | 0.00 | 0.00 | 78 | 1013.6 |
| 20260508053003 | 55 | 14 | 5.0 | 6.0 | 0.00 | 0.00 | 0.00 | 78 | 1013.6 |
| 20260508052503 | 55 | 9 | 4.0 | 6.0 | 0.00 | 0.00 | 0.00 | 78 | 1013.6 |
| 20260508052024 | 55 | 5 | 4.0 | 5.0 | 0.00 | 0.00 | 0.00 | 78 | 1013.5 |
| 20260508051503 | 55 | 356 | 5.0 | 5.0 | 0.00 | 0.00 | 0.00 | 78 | 1013.4 |
| 20260508051003 | 54 | 332 | 4.0 | 5.0 | 0.00 | 0.00 | 0.00 | 80 | 1013.4 |
| 20260508050524 | 54 | 343 | 4.0 | 5.0 | 0.00 | 0.00 | 0.00 | 80 | 1013.2 |
| 20260508050003 | 54 | 6 | 5.0 | 5.0 | 0.00 | 0.00 | 0.00 | 80 | 1013.2 |
| 20260508045503 | 53 | 3 | 5.0 | 5.0 | 0.00 | 0.00 | 0.00 | 80 | 1013.3 |
| 20260508045018 | 53 | 2 | 4.0 | 5.0 | 0.00 | 0.00 | 0.00 | 80 | 1013.2 |
| 20260508044503 | 53 | 10 | 5.0 | 6.0 | 0.00 | 0.00 | 0.00 | 80 | 1013.2 |
| 20260508044003 | 53 | 16 | 5.0 | 6.0 | 0.00 | 0.00 | 0.00 | 80 | 1013.2 |
| 20260508043503 | 53 | 14 | 5.0 | 6.0 | 0.00 | 0.00 | 0.00 | 79 | 1013.1 |
| 20260508043003 | 52 | 8 | 5.0 | 6.0 | 0.00 | 0.00 | 0.00 | 79 | 1013.2 |
| 20260508042503 | 52 | 5 | 2.0 | 5.0 | 0.00 | 0.00 | 0.00 | 78 | 1013.2 |
| 20260508042003 | 53 | 7 | 1.0 | 2.0 | 0.00 | 0.00 | 0.00 | 78 | 1013.0 |
| 20260508041504 | 53 | 7 | 2.0 | 3.0 | 0.00 | 0.00 | 0.00 | 78 | 1013.1 |
| 20260508041024 | 53 | 12 | 1.0 | 3.0 | 0.00 | 0.00 | 0.00 | 78 | 1013.0 |
| 20260508040503 | 53 | 20 | 1.0 | 2.0 | 0.00 | 0.00 | 0.00 | 77 | 1013.0 |
| 20260508040003 | 53 | 15 | 2.0 | 3.0 | 0.00 | 0.00 | 0.00 | 77 | 1013.0 |
| 20260508035524 | 53 | 11 | 3.0 | 3.0 | 0.00 | 0.00 | 0.00 | 77 | 1013.0 |
| 20260508035003 | 53 | 11 | 2.0 | 4.0 | 0.00 | 0.00 | 0.00 | 77 | 1012.9 |
| 20260508034503 | 53 | 20 | 1.0 | 4.0 | 0.00 | 0.00 | 0.00 | 77 | 1013.0 |
| 20260508034003 | 53 | 46 | 0.0 | 2.0 | 0.00 | 0.00 | 0.00 | 77 | 1013.0 |
| 20260508033524 | 53 | 0 | 0.0 | 0.0 | 0.00 | 0.00 | 0.00 | 77 | 1013.0 |
| 20260508033003 | 54 | 12 | 1.0 | 3.0 | 0.00 | 0.00 | 0.00 | 77 | 1013.1 |
| 20260508032503 | 54 | 14 | 2.0 | 3.0 | 0.00 | 0.00 | 0.00 | 78 | 1013.1 |
| 20260508032003 | 53 | 23 | 1.0 | 3.0 | 0.00 | 0.00 | 0.00 | 78 | 1012.9 |
| 20260508031524 | 53 | 54 | 1.0 | 5.0 | 0.00 | 0.00 | 0.00 | 78 | 1013.0 |
| 20260508031024 | 53 | 43 | 3.0 | 5.0 | 0.00 | 0.00 | 0.00 | 78 | 1012.9 |
| 20260508030503 | 53 | 43 | 4.0 | 9.0 | 0.00 | 0.00 | 0.00 | 79 | 1012.8 |
| 20260508030003 | 53 | 47 | 7.0 | 9.0 | 0.00 | 0.00 | 0.00 | 79 | 1012.7 |
| 20260508025503 | 53 | 47 | 7.0 | 9.0 | 0.00 | 0.00 | 0.00 | 79 | 1012.9 |
| 20260508025003 | 53 | 47 | 5.0 | 8.0 | 0.00 | 0.00 | 0.00 | 78 | 1012.7 |
| 20260508024524 | 53 | 54 | 5.0 | 6.0 | 0.00 | 0.00 | 0.00 | 78 | 1012.8 |
| 20260508024003 | 53 | 49 | 6.0 | 7.0 | 0.00 | 0.00 | 0.00 | 78 | 1012.8 |
| 20260508023503 | 53 | 46 | 5.0 | 7.0 | 0.00 | 0.00 | 0.00 | 78 | 1012.8 |
| 20260508023003 | 53 | 38 | 5.0 | 7.0 | 0.00 | 0.00 | 0.00 | 78 | 1012.8 |
| 20260508022503 | 53 | 17 | 6.0 | 7.0 | 0.00 | 0.00 | 0.00 | 78 | 1012.5 |
| 20260508022024 | 53 | 15 | 5.0 | 7.0 | 0.00 | 0.00 | 0.00 | 78 | 1012.5 |